WXM80 ListenWXM80 Stop

You find our weather info also at:

UK Metoffice

WeatherCloud

Weather Underground

Northeastern Weather Network

AWEKAS

Citizen Weather Observer Program (CWOP)

HAMweather, WeatherForYou, PWS Weather


Weather Underground History page Text

Daily Summary for September 13, 2017 Units:  English    Metric   Both
« Previous Day
Next Day »
Daily Weekly Monthly Yearly Custom
  High: Low: Average:
Temperature: 86.3 °F 60.1 °F 71.6 °F
Dew Point: 68.9 °F 57.8 °F 63.8 °F
Humidity: 96 % 46 % 79 %
Wind Speed: 4.4 mph 0.0 mph 0.7 mph
Wind Gust: 9.2 mph - -
Wind:- - SW
Pressure: 29.88 in 29.79 in -
Precipitation: 0.00 in    
Historical Graphs
 
 
Tabular Data for September 13, 2017
Time Temperature Dew Point Pressure Wind Wind Speed Wind Gust Humidity Rainfall Rate (Hourly)
00:01 65.4 °F 61.1 °F 29.85 in Calm     86 % 0.00 in
00:06 65.3 °F 61.0 °F 29.86 in Calm     86 % 0.00 in
00:08 65.3 °F 60.7 °F 29.86 in Calm     85 % 0.00 in
00:13 65.2 °F 60.9 °F 29.86 in Calm     86 % 0.00 in
00:18 65.0 °F 60.7 °F 29.86 in Calm   1.2 mph 86 % 0.00 in
00:23 64.9 °F 60.6 °F 29.86 in Calm   1.2 mph 86 % 0.00 in
00:28 64.7 °F 60.4 °F 29.86 in WSW 0.7 mph 2.3 mph 86 % 0.00 in
00:33 64.5 °F 60.2 °F 29.85 in WSW 0.4 mph 1.2 mph 86 % 0.00 in
00:38 64.4 °F 60.1 °F 29.85 in WSW 0.2 mph 1.2 mph 86 % 0.00 in
00:43 64.3 °F 60.3 °F 29.85 in WSW 0.2 mph 1.2 mph 87 % 0.00 in
00:48 64.1 °F 60.5 °F 29.85 in WSW 1.3 mph 2.3 mph 88 % 0.00 in
00:53 64.0 °F 60.4 °F 29.85 in WSW 0.3 mph 1.2 mph 88 % 0.00 in
00:58 64.0 °F 60.7 °F 29.85 in WSW 1.2 mph 4.0 mph 89 % 0.00 in
01:03 63.9 °F 60.6 °F 29.85 in Calm   1.2 mph 89 % 0.00 in
01:08 63.9 °F 60.6 °F 29.85 in WSW 0.9 mph 2.3 mph 89 % 0.00 in
01:13 63.9 °F 60.6 °F 29.85 in WSW 1.4 mph 3.5 mph 89 % 0.00 in
01:18 63.9 °F 60.6 °F 29.85 in WSW 1.5 mph 2.3 mph 89 % 0.00 in
01:23 63.9 °F 60.6 °F 29.85 in WSW 1.6 mph 3.0 mph 89 % 0.00 in
01:28 63.8 °F 60.5 °F 29.85 in SW 0.6 mph 2.3 mph 89 % 0.00 in
01:33 63.8 °F 60.5 °F 29.85 in SW 1.2 mph 3.5 mph 89 % 0.00 in
01:38 63.8 °F 60.5 °F 29.85 in SW 1.2 mph 3.5 mph 89 % 0.00 in
01:43 63.8 °F 60.5 °F 29.85 in SW 1.7 mph 2.3 mph 89 % 0.00 in
01:48 63.8 °F 60.5 °F 29.85 in Calm   2.3 mph 89 % 0.00 in
01:53 63.8 °F 60.5 °F 29.85 in SW 0.5 mph 1.2 mph 89 % 0.00 in
01:58 63.8 °F 60.2 °F 29.85 in Calm   1.2 mph 88 % 0.00 in
02:03 63.8 °F 60.2 °F 29.85 in SW 0.3 mph 1.2 mph 88 % 0.00 in
02:08 63.7 °F 60.1 °F 29.85 in SW 0.1 mph 1.2 mph 88 % 0.00 in
02:13 63.7 °F 60.1 °F 29.85 in Calm   1.2 mph 88 % 0.00 in
02:18 63.6 °F 60.0 °F 29.85 in SW 0.2 mph 1.2 mph 88 % 0.00 in
02:23 63.6 °F 60.0 °F 29.85 in SW 0.2 mph 1.2 mph 88 % 0.00 in
02:28 63.5 °F 59.9 °F 29.85 in Calm   1.2 mph 88 % 0.00 in
02:34 63.5 °F 59.9 °F 29.85 in SW 0.1 mph 2.3 mph 88 % 0.00 in
02:39 63.4 °F 59.8 °F 29.85 in SW 0.2 mph 1.2 mph 88 % 0.00 in
02:44 63.4 °F 59.8 °F 29.85 in SW 0.3 mph 2.3 mph 88 % 0.00 in
02:49 63.3 °F 59.7 °F 29.85 in SW 1.1 mph 3.5 mph 88 % 0.00 in
02:54 63.2 °F 59.6 °F 29.86 in SW 0.9 mph 3.5 mph 88 % 0.00 in
02:59 63.2 °F 59.9 °F 29.85 in SW 0.7 mph 2.3 mph 89 % 0.00 in
03:04 63.2 °F 59.9 °F 29.85 in SW 0.6 mph 2.3 mph 89 % 0.00 in
03:09 63.1 °F 59.8 °F 29.85 in SW 0.6 mph 1.2 mph 89 % 0.00 in
03:14 63.1 °F 59.8 °F 29.85 in SSW 1.0 mph 2.3 mph 89 % 0.00 in
03:19 63.1 °F 59.8 °F 29.86 in SSW 0.6 mph 2.3 mph 89 % 0.00 in
03:24 63.1 °F 59.8 °F 29.86 in SSW 0.3 mph 1.2 mph 89 % 0.00 in
03:29 63.1 °F 59.8 °F 29.85 in SSW 0.5 mph 1.2 mph 89 % 0.00 in
03:34 63.1 °F 59.5 °F 29.85 in SSW 0.3 mph 2.0 mph 88 % 0.00 in
03:40 63.1 °F 59.5 °F 29.85 in SSW 0.4 mph 2.3 mph 88 % 0.00 in
03:45 63.0 °F 59.4 °F 29.86 in SSW 0.5 mph 2.3 mph 88 % 0.00 in
03:50 63.0 °F 59.4 °F 29.85 in Calm   1.2 mph 88 % 0.00 in
03:55 63.0 °F 59.4 °F 29.85 in Calm   1.2 mph 88 % 0.00 in
04:00 62.9 °F 59.3 °F 29.85 in SW 0.1 mph 1.2 mph 88 % 0.00 in
04:05 62.9 °F 59.3 °F 29.85 in SW 1.2 mph 2.3 mph 88 % 0.00 in
04:10 62.8 °F 59.2 °F 29.85 in SW 0.9 mph 2.3 mph 88 % 0.00 in
04:15 62.7 °F 59.1 °F 29.85 in SW 1.0 mph 2.3 mph 88 % 0.00 in
04:20 62.6 °F 59.0 °F 29.85 in SW 1.6 mph 2.3 mph 88 % 0.00 in
04:25 62.6 °F 59.3 °F 29.85 in SW 0.8 mph 2.3 mph 89 % 0.00 in
04:30 62.5 °F 59.2 °F 29.85 in SW 0.9 mph 2.3 mph 89 % 0.00 in
04:35 62.4 °F 59.1 °F 29.85 in SW 0.3 mph 1.2 mph 89 % 0.00 in
04:40 62.2 °F 58.9 °F 29.85 in SW 0.1 mph 1.0 mph 89 % 0.00 in
04:45 62.1 °F 58.8 °F 29.85 in Calm     89 % 0.00 in
04:51 62.1 °F 58.8 °F 29.85 in Calm   2.0 mph 89 % 0.00 in
04:56 62.0 °F 58.7 °F 29.85 in Calm   1.2 mph 89 % 0.00 in
05:01 61.9 °F 58.6 °F 29.85 in Calm   2.3 mph 89 % 0.00 in
05:06 61.7 °F 58.4 °F 29.85 in Calm     89 % 0.00 in
05:11 61.6 °F 58.3 °F 29.85 in SW 0.2 mph 1.2 mph 89 % 0.00 in
05:16 61.6 °F 58.3 °F 29.85 in SW 0.4 mph 2.3 mph 89 % 0.00 in
05:21 61.4 °F 58.4 °F 29.85 in Calm   1.2 mph 90 % 0.00 in
05:26 61.4 °F 58.4 °F 29.85 in Calm     90 % 0.00 in
05:31 61.3 °F 58.3 °F 29.85 in Calm     90 % 0.00 in
05:36 61.2 °F 58.2 °F 29.86 in Calm     90 % 0.00 in
05:41 61.1 °F 58.1 °F 29.86 in Calm     90 % 0.00 in
05:46 61.0 °F 58.0 °F 29.86 in Calm     90 % 0.00 in
05:51 60.9 °F 57.9 °F 29.86 in Calm   1.2 mph 90 % 0.00 in
05:56 60.8 °F 57.8 °F 29.86 in SW 0.4 mph 1.2 mph 90 % 0.00 in
06:02 60.7 °F 58.1 °F 29.86 in Calm     91 % 0.00 in
06:07 60.6 °F 58.0 °F 29.87 in Calm     91 % 0.00 in
06:12 60.6 °F 58.0 °F 29.87 in Calm     91 % 0.00 in
06:17 60.5 °F 57.9 °F 29.87 in Calm   1.2 mph 91 % 0.00 in
06:22 60.4 °F 57.8 °F 29.87 in SW 1.3 mph 2.3 mph 91 % 0.00 in
06:27 60.4 °F 58.1 °F 29.86 in Calm     92 % 0.00 in
06:32 60.3 °F 58.0 °F 29.87 in SW 0.1 mph 2.0 mph 92 % 0.00 in
06:37 60.3 °F 58.3 °F 29.87 in Calm     93 % 0.00 in
06:42 60.3 °F 58.3 °F 29.87 in SW 0.3 mph 2.3 mph 93 % 0.00 in
06:47 60.3 °F 58.3 °F 29.87 in SW 0.2 mph 1.2 mph 93 % 0.00 in
06:52 60.3 °F 58.3 °F 29.87 in Calm   1.2 mph 93 % 0.00 in
06:57 60.2 °F 58.2 °F 29.87 in Calm     93 % 0.00 in
07:03 60.2 °F 58.2 °F 29.87 in Calm     93 % 0.00 in
07:08 60.2 °F 58.2 °F 29.87 in Calm     93 % 0.00 in
07:13 60.1 °F 58.1 °F 29.87 in Calm     93 % 0.00 in
07:18 60.1 °F 58.1 °F 29.88 in Calm     93 % 0.00 in
07:23 60.1 °F 58.1 °F 29.87 in Calm     93 % 0.00 in
07:26 60.1 °F 58.1 °F 29.87 in Calm     93 % 0.00 in
07:31 60.1 °F 58.1 °F 29.87 in Calm     93 % 0.00 in
07:36 60.1 °F 58.1 °F 29.87 in Calm     93 % 0.00 in
07:41 60.2 °F 58.5 °F 29.87 in SW 0.1 mph 1.2 mph 94 % 0.00 in
07:46 60.3 °F 58.6 °F 29.87 in SW 0.1 mph 1.0 mph 94 % 0.00 in
07:51 60.5 °F 58.8 °F 29.87 in Calm     94 % 0.00 in
07:56 60.7 °F 59.0 °F 29.87 in Calm     94 % 0.00 in
08:01 60.8 °F 59.4 °F 29.87 in Calm     95 % 0.00 in
08:07 61.2 °F 59.8 °F 29.87 in Calm     95 % 0.00 in
08:12 61.5 °F 60.1 °F 29.86 in Calm     95 % 0.00 in
08:17 61.9 °F 60.7 °F 29.86 in Calm     96 % 0.00 in
08:22 62.1 °F 60.9 °F 29.86 in WNW 1.5 mph 3.5 mph 96 % 0.00 in
08:27 62.4 °F 61.2 °F 29.87 in West 0.3 mph 3.0 mph 96 % 0.00 in
08:32 62.7 °F 61.5 °F 29.87 in SW 0.9 mph 2.3 mph 96 % 0.00 in
08:37 63.0 °F 61.8 °F 29.87 in West 2.8 mph 3.5 mph 96 % 0.00 in
08:42 63.3 °F 61.8 °F 29.87 in SW 0.9 mph 2.0 mph 95 % 0.00 in
08:47 63.7 °F 62.2 °F 29.87 in WSW 2.6 mph 3.5 mph 95 % 0.00 in
08:52 64.1 °F 62.6 °F 29.87 in SW 1.5 mph 3.5 mph 95 % 0.00 in
08:57 64.5 °F 62.7 °F 29.87 in WSW 0.9 mph 2.3 mph 94 % 0.00 in
09:02 65.0 °F 63.2 °F 29.87 in WSW 0.9 mph 3.5 mph 94 % 0.00 in
09:08 65.3 °F 63.2 °F 29.88 in SW 1.2 mph 2.3 mph 93 % 0.00 in
09:13 65.7 °F 63.6 °F 29.88 in Calm     93 % 0.00 in
09:18 65.9 °F 63.5 °F 29.88 in NW 1.0 mph 3.5 mph 92 % 0.00 in
09:23 66.2 °F 63.5 °F 29.88 in West 3.0 mph 3.5 mph 91 % 0.00 in
09:28 66.5 °F 63.5 °F 29.88 in WSW 1.1 mph 2.3 mph 90 % 0.00 in
09:33 66.7 °F 63.7 °F 29.88 in Calm     90 % 0.00 in
09:38 67.0 °F 64.0 °F 29.88 in West 0.9 mph 2.3 mph 90 % 0.00 in
09:43 67.3 °F 64.3 °F 29.88 in WNW 2.0 mph 3.5 mph 90 % 0.00 in
09:48 67.7 °F 64.7 °F 29.87 in NNW 0.7 mph 2.0 mph 90 % 0.00 in
09:53 68.2 °F 64.8 °F 29.87 in West 0.4 mph 3.5 mph 89 % 0.00 in
09:58 68.7 °F 65.3 °F 29.87 in West 0.2 mph 1.2 mph 89 % 0.00 in
10:03 69.2 °F 65.5 °F 29.87 in North 3.2 mph 4.6 mph 88 % 0.00 in
10:08 69.4 °F 65.4 °F 29.87 in North 1.6 mph 3.5 mph 87 % 0.00 in
10:13 69.7 °F 65.3 °F 29.87 in North 1.2 mph 2.3 mph 86 % 0.00 in
10:19 69.9 °F 65.5 °F 29.87 in North 0.5 mph 2.0 mph 86 % 0.00 in
10:24 70.1 °F 65.4 °F 29.87 in North 1.9 mph 3.5 mph 85 % 0.00 in
10:29 70.2 °F 65.5 °F 29.87 in NNE 1.8 mph 3.5 mph 85 % 0.00 in
10:34 70.3 °F 65.6 °F 29.87 in WNW 0.3 mph 3.5 mph 85 % 0.00 in
10:39 70.5 °F 65.4 °F 29.87 in NNW 0.2 mph 2.3 mph 84 % 0.00 in
10:44 70.8 °F 66.1 °F 29.87 in WNW 0.3 mph 2.3 mph 85 % 0.00 in
10:49 71.0 °F 65.9 °F 29.87 in WNW 1.8 mph 3.5 mph 84 % 0.00 in
10:55 71.2 °F 65.8 °F 29.86 in WNW 1.7 mph 3.5 mph 83 % 0.00 in
11:00 71.5 °F 66.1 °F 29.86 in WNW 0.1 mph 2.3 mph 83 % 0.00 in
11:05 71.8 °F 66.0 °F 29.86 in North 1.8 mph 3.5 mph 82 % 0.00 in
11:10 72.2 °F 66.0 °F 29.86 in WNW 1.0 mph 2.3 mph 81 % 0.00 in
11:15 72.9 °F 66.7 °F 29.86 in NW 1.0 mph 3.5 mph 81 % 0.00 in
11:20 73.8 °F 67.2 °F 29.85 in West 2.4 mph 3.5 mph 80 % 0.00 in
11:25 74.7 °F 67.4 °F 29.86 in North 0.4 mph 2.3 mph 78 % 0.00 in
11:30 75.7 °F 68.4 °F 29.86 in North 0.8 mph 2.3 mph 78 % 0.00 in
11:35 76.8 °F 67.1 °F 29.86 in WSW 1.4 mph 3.5 mph 72 % 0.00 in
11:40 77.4 °F 66.0 °F 29.86 in NNW 1.3 mph 4.6 mph 68 % 0.00 in
11:45 78.2 °F 68.0 °F 29.86 in SW 2.2 mph 4.6 mph 71 % 0.00 in
11:51 79.2 °F 68.6 °F 29.85 in West 0.4 mph 3.5 mph 70 % 0.00 in
11:56 80.0 °F 67.2 °F 29.85 in WSW 2.0 mph 4.0 mph 65 % 0.00 in
12:01 80.8 °F 66.6 °F 29.85 in West 1.4 mph 2.3 mph 62 % 0.00 in
12:06 81.5 °F 67.2 °F 29.85 in NW 1.8 mph 4.0 mph 62 % 0.00 in
12:11 82.0 °F 65.8 °F 29.85 in WSW 2.9 mph 3.5 mph 58 % 0.00 in
12:16 82.7 °F 67.9 °F 29.85 in WSW 1.1 mph 2.3 mph 61 % 0.00 in
12:21 83.3 °F 68.9 °F 29.85 in West 0.1 mph 1.2 mph 62 % 0.00 in
12:26 83.9 °F 66.5 °F 29.85 in WSW 2.4 mph 4.6 mph 56 % 0.00 in
12:31 84.3 °F 68.9 °F 29.84 in WSW 0.6 mph 1.2 mph 60 % 0.00 in
12:36 84.7 °F 66.2 °F 29.84 in West 0.1 mph 3.5 mph 54 % 0.00 in
12:41 84.9 °F 65.9 °F 29.84 in SW 3.1 mph 5.8 mph 53 % 0.00 in
12:46 85.1 °F 64.9 °F 29.84 in West 1.9 mph 4.0 mph 51 % 0.00 in
12:51 85.3 °F 66.8 °F 29.84 in NW 1.1 mph 3.5 mph 54 % 0.00 in
12:57 85.5 °F 65.3 °F 29.84 in SW 0.9 mph 3.5 mph 51 % 0.00 in
13:02 85.7 °F 67.1 °F 29.84 in SW 0.1 mph 1.2 mph 54 % 0.00 in
13:07 85.9 °F 65.7 °F 29.84 in WSW 0.8 mph 2.3 mph 51 % 0.00 in
13:12 86.0 °F 66.9 °F 29.84 in WNW 1.2 mph 3.5 mph 53 % 0.00 in
13:17 86.2 °F 68.1 °F 29.84 in North 1.5 mph 3.5 mph 55 % 0.00 in
13:22 86.3 °F 67.7 °F 29.83 in North 2.7 mph 4.6 mph 54 % 0.00 in
13:27 86.2 °F 68.7 °F 29.83 in North 3.3 mph 5.8 mph 56 % 0.00 in
13:32 86.0 °F 67.4 °F 29.83 in North 4.4 mph 5.8 mph 54 % 0.00 in
13:37 85.7 °F 66.6 °F 29.83 in NNW 1.3 mph 3.0 mph 53 % 0.00 in
13:42 85.7 °F 67.1 °F 29.83 in NNW 3.5 mph 5.8 mph 54 % 0.00 in
13:47 85.5 °F 65.9 °F 29.83 in North 1.5 mph 4.0 mph 52 % 0.00 in
13:53 85.3 °F 66.2 °F 29.82 in North 1.1 mph 3.5 mph 53 % 0.00 in
13:58 85.2 °F 66.1 °F 29.82 in WNW 1.8 mph 4.0 mph 53 % 0.00 in
14:03 85.3 °F 66.8 °F 29.82 in NNE 2.7 mph 4.0 mph 54 % 0.00 in
14:08 85.2 °F 63.9 °F 29.81 in WNW 2.3 mph 3.5 mph 49 % 0.00 in
14:13 85.2 °F 64.5 °F 29.81 in NNW 1.1 mph 3.5 mph 50 % 0.00 in
14:18 85.3 °F 64.6 °F 29.81 in NW 3.2 mph 4.6 mph 50 % 0.00 in
14:23 85.3 °F 64.6 °F 29.81 in NNW 1.0 mph 3.5 mph 50 % 0.00 in
14:28 85.3 °F 64.0 °F 29.81 in NNE 2.2 mph 3.5 mph 49 % 0.00 in
14:33 85.2 °F 64.5 °F 29.81 in NNE 2.3 mph 4.6 mph 50 % 0.00 in
14:34 85.2 °F 64.5 °F 29.81 in North 2.0 mph 4.6 mph 50 % 0.00 in
14:39 85.4 °F 64.6 °F 29.81 in NNE 1.6 mph 3.5 mph 50 % 0.00 in
14:44 85.4 °F 63.5 °F 29.81 in NNE 0.7 mph 3.5 mph 48 % 0.00 in
14:49 85.3 °F 63.4 °F 29.81 in North 2.0 mph 5.8 mph 48 % 0.00 in
14:54 85.2 °F 62.1 °F 29.81 in WNW 0.9 mph 3.0 mph 46 % 0.00 in
14:59 85.0 °F 61.9 °F 29.81 in Calm   2.3 mph 46 % 0.00 in
15:04 84.9 °F 63.0 °F 29.80 in WNW 0.2 mph 1.2 mph 48 % 0.00 in
15:09 84.3 °F 62.5 °F 29.80 in Calm     48 % 0.00 in
15:14 84.2 °F 62.4 °F 29.81 in Calm   1.2 mph 48 % 0.00 in
15:19 84.2 °F 62.4 °F 29.80 in Calm   1.2 mph 48 % 0.00 in
15:24 84.1 °F 62.9 °F 29.80 in Calm   1.2 mph 49 % 0.00 in
15:30 84.1 °F 62.9 °F 29.80 in West 1.3 mph 3.5 mph 49 % 0.00 in
15:35 84.1 °F 63.5 °F 29.80 in WSW 1.8 mph 3.5 mph 50 % 0.00 in
15:40 84.1 °F 64.6 °F 29.79 in SE 0.9 mph 3.5 mph 52 % 0.00 in
15:45 83.9 °F 65.5 °F 29.79 in WSW 3.4 mph 4.6 mph 54 % 0.00 in
15:50 83.8 °F 65.4 °F 29.80 in SW 0.7 mph 2.3 mph 54 % 0.00 in
15:55 83.6 °F 65.7 °F 29.80 in SW 1.3 mph 3.5 mph 55 % 0.00 in
16:00 83.5 °F 66.2 °F 29.80 in SE 0.7 mph 2.3 mph 56 % 0.00 in
16:05 83.4 °F 66.1 °F 29.79 in WSW 3.3 mph 5.8 mph 56 % 0.00 in
16:10 83.3 °F 65.4 °F 29.80 in SSW 2.8 mph 9.2 mph 55 % 0.00 in
16:15 83.3 °F 66.0 °F 29.80 in SW 1.1 mph 3.5 mph 56 % 0.00 in
16:20 83.4 °F 66.1 °F 29.79 in SW 0.3 mph 1.2 mph 56 % 0.00 in
16:25 83.3 °F 66.5 °F 29.79 in SW 0.6 mph 2.3 mph 57 % 0.00 in
16:30 83.2 °F 66.4 °F 29.79 in WSW 1.1 mph 1.2 mph 57 % 0.00 in
16:35 83.1 °F 65.8 °F 29.79 in SW 0.9 mph 2.3 mph 56 % 0.00 in
16:41 82.9 °F 66.6 °F 29.79 in SW 1.0 mph 5.0 mph 58 % 0.00 in
16:46 82.7 °F 66.4 °F 29.79 in Calm   3.0 mph 58 % 0.00 in
16:51 82.5 °F 66.2 °F 29.79 in Calm   2.0 mph 58 % 0.00 in
16:56 82.2 °F 66.4 °F 29.79 in South 0.3 mph 2.3 mph 59 % 0.00 in
17:01 82.0 °F 66.3 °F 29.80 in Calm   3.5 mph 59 % 0.00 in
17:06 81.6 °F 66.4 °F 29.80 in SSW 0.2 mph 3.5 mph 60 % 0.00 in
17:11 81.2 °F 66.0 °F 29.80 in South 0.8 mph 3.5 mph 60 % 0.00 in
17:16 80.8 °F 66.1 °F 29.80 in SE 0.4 mph 1.2 mph 61 % 0.00 in
17:21 80.6 °F 66.4 °F 29.80 in SSW 0.3 mph 1.2 mph 62 % 0.00 in
17:26 80.2 °F 65.5 °F 29.80 in SSW 0.1 mph 1.2 mph 61 % 0.00 in
17:31 79.9 °F 65.7 °F 29.80 in West 1.0 mph 6.0 mph 62 % 0.00 in
17:36 79.6 °F 65.0 °F 29.81 in South 1.2 mph 4.6 mph 61 % 0.00 in
17:41 79.3 °F 64.7 °F 29.81 in SSW 3.1 mph 9.2 mph 61 % 0.00 in
17:46 78.9 °F 64.8 °F 29.81 in ESE 0.2 mph 2.3 mph 62 % 0.00 in
17:51 78.5 °F 64.9 °F 29.80 in SW 0.4 mph 4.6 mph 63 % 0.00 in
17:56 78.2 °F 65.0 °F 29.80 in SW 2.3 mph 4.6 mph 64 % 0.00 in
18:01 77.8 °F 65.1 °F 29.80 in Calm     65 % 0.00 in
18:07 77.6 °F 65.3 °F 29.80 in Calm     66 % 0.00 in
18:12 77.2 °F 65.8 °F 29.81 in SE 0.1 mph 1.2 mph 68 % 0.00 in
18:17 76.9 °F 66.0 °F 29.80 in WNW 0.8 mph 3.5 mph 69 % 0.00 in
18:22 76.7 °F 66.2 °F 29.80 in WSW 1.3 mph 4.6 mph 70 % 0.00 in
18:27 76.4 °F 66.3 °F 29.80 in WSW 1.6 mph 3.5 mph 71 % 0.00 in
18:32 76.1 °F 66.4 °F 29.81 in WSW 0.5 mph 2.3 mph 72 % 0.00 in
18:37 75.9 °F 66.6 °F 29.81 in SW 2.1 mph 5.0 mph 73 % 0.00 in
18:42 75.6 °F 66.7 °F 29.81 in SW 2.0 mph 3.5 mph 74 % 0.00 in
18:47 75.4 °F 66.9 °F 29.81 in West 3.6 mph 6.0 mph 75 % 0.00 in
18:52 75.2 °F 67.1 °F 29.81 in SSW 2.0 mph 4.0 mph 76 % 0.00 in
18:57 75.0 °F 66.9 °F 29.81 in SW 2.2 mph 4.0 mph 76 % 0.00 in
19:02 74.8 °F 67.1 °F 29.81 in SW 2.3 mph 4.0 mph 77 % 0.00 in
19:08 74.7 °F 67.4 °F 29.81 in West 1.4 mph 4.6 mph 78 % 0.00 in
19:13 74.5 °F 67.6 °F 29.81 in SW 3.5 mph 5.8 mph 79 % 0.00 in
19:17 74.4 °F 67.5 °F 29.81 in West 1.7 mph 3.5 mph 79 % 0.00 in
19:22 74.3 °F 67.7 °F 29.81 in WSW 1.0 mph 3.5 mph 80 % 0.00 in
19:27 74.1 °F 67.5 °F 29.81 in WSW 0.2 mph 1.2 mph 80 % 0.00 in
19:32 74.0 °F 67.4 °F 29.81 in Calm     80 % 0.00 in
19:37 73.9 °F 67.3 °F 29.81 in WSW 0.3 mph 2.3 mph 80 % 0.00 in
19:42 73.8 °F 67.2 °F 29.81 in Calm     80 % 0.00 in
19:47 73.7 °F 67.5 °F 29.81 in Calm     81 % 0.00 in
19:52 73.6 °F 67.4 °F 29.82 in ESE 0.7 mph 3.0 mph 81 % 0.00 in
19:57 73.5 °F 67.7 °F 29.81 in Calm     82 % 0.00 in
20:02 73.4 °F 67.6 °F 29.82 in Calm   1.2 mph 82 % 0.00 in
20:07 73.3 °F 67.5 °F 29.82 in Calm   1.2 mph 82 % 0.00 in
20:12 73.2 °F 67.7 °F 29.82 in SW 0.9 mph 3.5 mph 83 % 0.00 in
20:17 73.2 °F 67.7 °F 29.82 in Calm   2.3 mph 83 % 0.00 in
20:23 73.1 °F 67.6 °F 29.82 in SSW 0.3 mph 1.2 mph 83 % 0.00 in
20:28 73.1 °F 67.6 °F 29.82 in Calm   1.2 mph 83 % 0.00 in
20:33 73.0 °F 67.9 °F 29.82 in Calm   1.2 mph 84 % 0.00 in
20:38 73.0 °F 67.9 °F 29.82 in Calm     84 % 0.00 in
20:43 73.0 °F 67.5 °F 29.82 in Calm     83 % 0.00 in
20:48 72.9 °F 67.8 °F 29.82 in Calm   1.2 mph 84 % 0.00 in
20:53 72.9 °F 67.8 °F 29.82 in Calm     84 % 0.00 in
20:58 72.9 °F 67.8 °F 29.82 in Calm     84 % 0.00 in
21:03 72.8 °F 67.7 °F 29.82 in Calm   1.2 mph 84 % 0.00 in
21:08 72.8 °F 67.7 °F 29.82 in Calm     84 % 0.00 in
21:13 72.8 °F 67.7 °F 29.82 in Calm     84 % 0.00 in
21:19 72.8 °F 68.0 °F 29.82 in Calm     85 % 0.00 in
21:24 72.8 °F 68.0 °F 29.82 in Calm     85 % 0.00 in
21:29 72.7 °F 67.9 °F 29.82 in Calm     85 % 0.00 in
21:34 72.7 °F 67.9 °F 29.82 in Calm     85 % 0.00 in
21:39 72.7 °F 68.3 °F 29.82 in Calm     86 % 0.00 in
21:44 72.7 °F 68.3 °F 29.81 in Calm     86 % 0.00 in
21:49 72.6 °F 68.2 °F 29.81 in Calm     86 % 0.00 in
21:54 72.6 °F 68.2 °F 29.81 in Calm     86 % 0.00 in
21:59 72.6 °F 68.2 °F 29.81 in Calm     86 % 0.00 in
22:04 72.6 °F 68.2 °F 29.82 in Calm     86 % 0.00 in
22:09 72.6 °F 68.2 °F 29.82 in Calm     86 % 0.00 in
22:14 72.6 °F 68.2 °F 29.82 in Calm     86 % 0.00 in
22:19 72.6 °F 68.2 °F 29.82 in Calm     86 % 0.00 in
22:25 72.6 °F 68.5 °F 29.82 in Calm     87 % 0.00 in
22:30 72.6 °F 68.5 °F 29.82 in Calm     87 % 0.00 in
22:35 72.6 °F 68.5 °F 29.82 in Calm   2.3 mph 87 % 0.00 in
22:40 72.6 °F 68.5 °F 29.82 in Calm     87 % 0.00 in
22:45 72.6 °F 68.5 °F 29.82 in Calm     87 % 0.00 in
22:50 72.6 °F 68.8 °F 29.82 in SSW 0.5 mph 2.3 mph 88 % 0.00 in
22:55 72.6 °F 68.8 °F 29.82 in SSW 0.2 mph 1.2 mph 88 % 0.00 in
23:00 72.5 °F 68.7 °F 29.82 in Calm     88 % 0.00 in
23:05 72.5 °F 68.7 °F 29.82 in SSE 0.2 mph   88 % 0.00 in
23:10 72.5 °F 68.7 °F 29.82 in SSE 0.1 mph 1.2 mph 88 % 0.00 in
23:19 72.4 °F 68.6 °F 29.82 in South 0.2 mph 2.3 mph 88 % 0.00 in
23:23 72.4 °F 68.6 °F 29.82 in Calm     88 % 0.00 in
23:24 72.4 °F 68.6 °F 29.82 in SSE 0.3 mph 2.3 mph 88 % 0.00 in
23:26 72.3 °F 68.5 °F 29.82 in Calm   2.3 mph 88 % 0.00 in
23:29 72.3 °F 68.5 °F 29.82 in SSE 0.1 mph   88 % 0.00 in
23:32 72.2 °F 68.4 °F 29.82 in Calm   1.2 mph 88 % 0.00 in
23:39 72.2 °F 68.4 °F 29.82 in Calm     88 % 0.00 in
23:40 72.2 °F 68.4 °F 29.82 in Calm   1.2 mph 88 % 0.00 in
23:45 72.1 °F 68.3 °F 29.81 in Calm     88 % 0.00 in
23:50 72.1 °F 68.3 °F 29.82 in Calm     88 % 0.00 in
23:56 72.1 °F 68.3 °F 29.82 in Calm   1.0 mph 88 % 0.00 in
Crab Meadow Weather
Compliments of Weather Underground - 3 mb

Script developed by  Jim McMurry - jmcmurry@mwt.net Adapted for the template by  Wim van der Kuil - Leuven-Template.eu

Recycling: Americans throw away 25,000,000,000 Styrofoam coffee cups every year.